Weather Roundup
Issued by NWS Corpus Christi, TX

Home | Current Version | Previous Version | Text Only | Print | Product List | Glossary Off
Versions: 1 2 3 4 5 6 7 8 9 10 11 12 13 14 15 16 17 18 19 20 21 22 23 24 25 26 27 28 29 30 31 32 33 34 35 36 37 38 39 40 41 42 43 44 45 46 47 48 49 50

000
ASUS44 KCRP 250010
HRRCRP

SOUTH TEXAS REGIONAL WEATHER ROUNDUP
NATIONAL WEATHER SERVICE CORPUS CHRISTI TX
700 PM CDT SAT SEP 24 2016


TXZ229>244-250100-
...CORPUS CHRISTI AREA OBSERVATIONS...

CITY           SKY/WX    TMP DP  RH WIND       PRES   REMARKS
CORPUS CHRISTI PTCLDY    87  77  72 SE16      29.86R HX  99
NAS CORPUS CHR CLEAR     86  78  77 SE20G25   29.87R HX  98
ROCKPORT       CLOUDY    87  77  72 SE16      29.88R HX  99
KINGSVILLE NAS CLEAR     87  75  67 SE15G29   29.84  HX  96
ALICE          CLEAR     88  71  57 SE17G25   29.84R HX  94
FALFURRIAS     CLEAR     90  71  52 SE12G17   29.83R HX  96
$$

...VICTORIA AREA OBSERVATIONS...

CITY           SKY/WX    TMP DP  RH WIND       PRES   REMARKS
VICTORIA       PTCLDY    81  74  79 E7        29.91S
BEEVILLE       FAIR      87  74  65 SE13G18   29.87R HX  96
PLEASANTON     PTCLDY    90  69  49 E10       29.86R HX  94
SAN ANTONIO    MOCLDY    85  71  63 E14       29.89S HX  90
$$

...LAREDO AREA OBSERVATIONS...

CITY           SKY/WX    TMP DP  RH WIND       PRES   REMARKS
LAREDO         CLEAR     96  65  35 SE16G24   29.79R HX  98
COTULLA        PTCLDY    96  64  34 SE14      29.80S HX  98
DEL RIO        MOCLDY    87  70  56 CALM      29.82S HX  92
MCALLEN        CLEAR     93  70  46 SE20      29.82S HX  99
HEBBRONVILLE   PTCLDY    93  69  45 SE17G25   29.83R HX  97
$$

...OTHER TEXAS OBSERVATIONS...

CITY           SKY/WX    TMP DP  RH WIND       PRES   REMARKS
BROWNSVILLE    CLEAR     88  74  63 S18       29.86R HX  96
HOUSTON        CLOUDY    80  76  87 S6        29.93F
COL. STATION   CLOUDY    78  75  90 E6        29.94R
AUSTIN         CLOUDY    83  76  79 SE5       29.90S HX  91
WACO           MOCLDY    86  71  60 SE21G28   29.91R HX  91
FORT WORTH     PTCLDY    88  70  55 SE15      29.88S HX  93
WICHITA FALLS  CLOUDY    83  69  62 SE9       29.87R
LUBBOCK        CLOUDY    76  65  68 SE12      29.94S
EL PASO        MOSUNNY   82  38  20 NW12G22   29.97F
$$

...MARINE OBSERVATIONS...

STATION/POSITION TIME  SKY/WX   TEMP    WIND        PRES    VSBY  WAVE   SWELL
                                AIR SEA DIR/SP/G                  HT/PER HT/PER
                 (UTC)          (F)     (DEG/KT/KT) (MB)    (MI)  (FT/S) (FT/S)
PORT ARANSAS     0000            86 87  120/ 17/ 19 1012.0R
BUOY 90 E PORT A 2350            84 86  100/ 12/ 14 1013.2F         3/ 5   2/ 5
BUOY 45 SE BAFFI 2350            86 87  150/ 14/ 16 1011.3R         3/ 5
BUOY 200 E PT IS 2350            86 87  130/  6/  8 1013.0          2/ 4   2/ 4
BUOY 15 E GALVES 2350            83 86  140/ 12/ 14 1013.7F         2/ 4
$$




USA.gov is the U.S. government's official web portal to all federal, state and local government web resources and services.